SPOT 6

Last updated on Mon Sep 21 2026 00:02:45 GMT+0000 (Coordinated Universal Time)

1 38755U 12047A 26263.62315267 .00000138 00000+0 39526-4 0 9993 2 38755 98.2030 329.7689 0001279 75.5920 284.5421 14.58534356746965
UTC large
Height (km)
Speed (km/s)
/
Latitude / Longitude
Inclination (degrees)
Orbital Period (minutes)
Azimuth
Elevation
Range (km)
Doppler Factor

Next 0 passes for location: London (51.5072 / 0.1276)

No passes found over London.
SPOT 6